Minneapolis Flying Cloud, MN

7:13 AM CST on November 15, 2019 (GMT -0600)
Flying Cloud

Weather History for KFCM - September, 2019

Change the Weather History Date:

Saturday, September 21, 2019

  Actual Average Record
Temperature  
Mean Temperature 76 °F -  
Max Temperature 82 °F 68 °F 89 °F (2005)
Min Temperature 70 °F 47 °F 33 °F (1999)
Cooling Degree Days 10    
Growing Degree Days 26 (Base 50)    
Moisture  
Dew Point 68 °F    
Average Humidity 79    
Maximum Humidity 87    
Minimum Humidity 65    
Precipitation  
Precipitation 0.14 in - - ()
Sea Level Pressure  
Sea Level Pressure 29.77 in    
Wind  
Wind Speed 12 mph (South)    
Max Wind Speed 21 mph    
Max Gust Speed 32 mph    
Visibility 10 miles    
Events Rain , Thunderstorm    
Averages and records for this station are not official NWS values.
T = Trace of Precipitation, MM = Missing Value Source: NWS Daily Summary

Daily Weather History Graph

Daily Weather History Graph

Search for Another Location

Airport or City:

Astronomy

Sep. 21, 2019 Rise Set
Actual Time 6:59 AM CDT 7:13 PM CDT
Civil Twilight 6:30 AM CDT 7:42 PM CDT
Nautical Twilight 5:55 AM CDT 8:17 PM CDT
Astronomical Twilight 5:20 AM CDT 8:52 PM CDT
Moon 11:35 PM CDT (9/21) 2:22 PM CDT (9/21)
Length of Visible Light 13h 12m
Length of Day
12h 14m
Waning Gibbous, 54% of the Moon is Illuminated
Sep 21
Waning Gibbous
Sep 21
Last Quarter
Sep 28
New
Oct 5
First Quarter
Oct 13
Full

Hourly Weather History & Observations

Time (CDT) Temp. Heat Index Dew Point Humidity Pressure Visibility Wind Dir Wind Speed Gust Speed Precip Events Conditions
12:53 AM 75.0 °F - 66.9 °F 76% 29.86 in 10.0 mi SSE 9.2 mph - N/A   Clear
1:53 AM 73.9 °F - 66.9 °F 79% 29.86 in 10.0 mi SSE 9.2 mph - N/A   Scattered Clouds
2:53 AM 73.9 °F - 66.9 °F 79% 29.84 in 10.0 mi SSE 9.2 mph - N/A   Clear
3:53 AM 75.0 °F - 66.0 °F 73% 29.81 in 10.0 mi South 17.3 mph 26.5 mph N/A   Mostly Cloudy
4:14 AM 73.0 °F - 66.9 °F 81% 29.84 in 5.0 mi South 20.7 mph 29.9 mph 0.02 in Rain , Thunderstorm Light Rain
4:23 AM 72.0 °F - 68.0 °F 87% 29.83 in 2.5 mi South 17.3 mph 29.9 mph 0.07 in Rain Heavy Rain
4:42 AM 71.1 °F - 66.9 °F 87% 29.83 in 6.0 mi South 10.4 mph - 0.14 in Rain Light Rain
4:53 AM 71.1 °F - 66.9 °F 87% 29.80 in 10.0 mi SSE 9.2 mph - 0.14 in   Overcast
5:53 AM 72.0 °F - 68.0 °F 87% 29.78 in 10.0 mi SSE 10.4 mph - 0.00 in Rain Light Rain
6:18 AM 72.0 °F - 68.0 °F 87% 29.79 in 10.0 mi SSE 11.5 mph - 0.00 in   Overcast
6:53 AM 72.0 °F - 68.0 °F 87% 29.78 in 10.0 mi South 12.7 mph - 0.00 in   Overcast
7:53 AM 72.0 °F - 68.0 °F 87% 29.79 in 10.0 mi South 10.4 mph - N/A   Overcast
8:53 AM 73.0 °F - 68.0 °F 84% 29.78 in 10.0 mi South 13.8 mph 20.7 mph N/A   Overcast
9:34 AM 73.0 °F - 68.0 °F 84% 29.79 in 10.0 mi South 12.7 mph 24.2 mph N/A   Overcast
9:53 AM 73.9 °F - 68.0 °F 82% 29.78 in 10.0 mi South 16.1 mph 23.0 mph N/A   Overcast
10:28 AM 73.9 °F - 68.0 °F 82% 29.78 in 10.0 mi South 11.5 mph 21.9 mph N/A   Overcast
10:53 AM 75.9 °F - 70.0 °F 82% 29.73 in 10.0 mi SSE 16.1 mph 28.8 mph 0.00 in   Overcast
11:53 AM 75.9 °F - 69.1 °F 79% 29.73 in 10.0 mi South 17.3 mph 32.2 mph N/A   Overcast
12:53 PM 78.1 °F - 70.0 °F 76% 29.73 in 10.0 mi South 17.3 mph 26.5 mph N/A   Overcast
1:48 PM 75.2 °F - 69.8 °F 83% 29.74 in 10.0 mi South 12.7 mph - N/A   Overcast
1:53 PM 75.9 °F - 70.0 °F 82% 29.73 in 10.0 mi SSE 11.5 mph - 0.00 in Rain Light Rain
2:32 PM 79.0 °F - 70.0 °F 74% 29.72 in 10.0 mi South 16.1 mph 20.7 mph 0.00 in   Overcast
2:53 PM 80.1 °F 83.2 °F 70.0 °F 71% 29.70 in 10.0 mi South 15.0 mph - 0.00 in   Mostly Cloudy
3:53 PM 80.1 °F 82.9 °F 69.1 °F 69% 29.70 in 10.0 mi SSW 15.0 mph 26.5 mph N/A   Mostly Cloudy
4:53 PM 80.1 °F 83.2 °F 70.0 °F 71% 29.70 in 10.0 mi SSW 15.0 mph 21.9 mph N/A   Partly Cloudy
5:53 PM 80.1 °F 83.2 °F 70.0 °F 71% 29.70 in 10.0 mi South 17.3 mph 25.3 mph N/A   Mostly Cloudy
6:53 PM 78.1 °F - 69.1 °F 74% 29.71 in 10.0 mi SSW 13.8 mph 23.0 mph N/A   Clear
7:53 PM 77.0 °F - 69.1 °F 76% 29.71 in 10.0 mi SSW 11.5 mph - N/A   Mostly Cloudy
8:53 PM 75.0 °F - 69.1 °F 82% 29.75 in 10.0 mi WSW 6.9 mph - N/A   Partly Cloudy
9:53 PM 73.9 °F - 68.0 °F 82% 29.77 in 10.0 mi SW 4.6 mph - N/A   Mostly Cloudy
10:53 PM 73.0 °F - 61.0 °F 66% 29.80 in 10.0 mi WNW 10.4 mph 20.7 mph N/A   Partly Cloudy
11:53 PM 70.0 °F - 57.9 °F 65% 29.81 in 10.0 mi WNW 6.9 mph - N/A   Clear